Location: Arboyeti
(42.1122°N, 44.6017°E)
Time: 09:55:22
(UTC+00:00)

Cosmos 1378 - Pass Details

Date: 19 April 2021
Orbit: 490 x 500 km, 82.5° (Epoch: 05 May)

Event Time Altitude Azimuth Distance (km) Brightness Sun altitude
Exits shadow 23:30:53 37° 69° (ENE) 781 4.5 -26.2°
Drops below altitude 10° 23:33:48 10° 23° (NNE) 1,690 6.7 -25.9°
Sets 23:35:59 0° 16° (NNE) 2,576 7.7 -25.6°
